Location: Columbia
(38.9520°N, 92.3340°W)
Time: 20:50:09
(UTC-05:00)

Cosmos 2219 Rocket - Visible Passes

Search period start: 16 October 2017 00:00
Search period end: 26 October 2017 00:00
Orbit: 830 x 845 km, 71.0° (Epoch: 16 October)

Date Brightness Start Highest point End Pass type
(mag) Time Alt. Az. Time Alt. Az. Time Alt. Az.
16 Oct 3.8 19:25:26 10° NNE 19:28:17 14° NE 19:29:17 13° ENE visible
16 Oct 3.1 21:07:24 10° NNW 21:11:01 42° NNW 21:11:01 42° NNW visible
17 Oct 3.9 19:09:21 10° NNE 19:11:51 13° NE 19:13:48 11° ENE visible
17 Oct 2.5 20:51:02 10° NNW 20:55:33 59° NNW 20:55:33 59° NNW visible
18 Oct 4.0 18:53:19 10° NNE 18:55:25 12° NE 18:57:32 10° ENE visible
18 Oct 2.0 20:34:41 10° NNW 20:40:12 78° NE 20:40:12 78° NE visible
18 Oct 5.0 22:21:13 10° WNW 22:21:59 11° W 22:21:59 11° W visible
19 Oct 2.0 20:18:21 10° NNW 20:23:57 72° ENE 20:25:02 57° SE visible
19 Oct 4.8 22:04:28 10° WNW 22:06:49 14° W 22:06:49 14° W visible
20 Oct 2.1 20:02:00 10° NNW 20:07:35 67° ENE 20:10:07 33° SE visible
20 Oct 4.7 21:47:48 10° WNW 21:50:53 15° W 21:51:55 14° WSW visible
21 Oct 2.1 19:45:40 10° NNW 19:51:14 62° ENE 19:55:32 17° SE visible
21 Oct 4.7 21:31:11 10° WNW 21:34:35 17° W 21:37:22 12° SW visible
22 Oct 2.2 19:29:20 10° NNW 19:34:52 57° ENE 19:40:22 10° SE visible
22 Oct 4.6 21:14:36 10° WNW 21:18:17 18° W 21:21:58 10° SW visible
23 Oct 2.3 19:13:00 10° NNW 19:18:30 53° ENE 19:23:57 10° SE visible
23 Oct 4.6 20:58:03 10° NW 21:01:58 20° W 21:05:54 10° SW visible
24 Oct 2.4 18:56:42 10° NNW 19:02:08 49° ENE 19:07:32 10° SE visible
24 Oct 4.5 20:41:32 10° NW 20:45:40 21° W 20:49:48 10° SSW visible
25 Oct 2.5 18:40:23 10° N 18:45:46 45° ENE 18:51:06 10° SE visible
25 Oct 4.4 20:25:02 10° NW 20:29:22 23° WSW 20:33:41 10° SSW visible
